Home > Weather > Gelendzhik > Past weeks

Flag for Russia Weather for the Past 2 Weeks in Gelendzhik, Russia

Now
39 °F

Fog.


Feels Like: 35 °F
Forecast: 43 / 68 °F
Wind: 6 mph from Southeast

Location: Anapa / Vitiazevo

Current Time: Apr 29, 2016 at 5:40:57 AM

Latest Report: Apr 29, 2016 at 5:00 AM


Visibility: 2 mi

Pressure: 30.12 "Hg

Humidity: 93%

Dew Point: 37 °F

Location of GelendzhikLocation

Historic Weather in Gelendzhik — Graph

°F

Gelendzhik Temperature Yesterday

Maximum temperature yesterday: 57 °F (at 10:30 AM)
Minimum temperature yesterday: 41 °F (at 9:30 PM)
Average temperature yesterday: 52 °F

High & Low Weather Summary for the Past Weeks

 TemperatureHumidityPressure
High75 °F (Apr 24, 12:30 PM)100% (Apr 14, 5:00 AM)30.27 "Hg (Apr 14, 5:00 AM)
Low36 °F (Apr 23, 4:30 AM)26% (Apr 18, 3:00 PM)29.33 "Hg (Apr 25, 8:00 AM)
Average56 °F72%29.90 "Hg
* Reported Apr 14 4:00 AM — Apr 29 4:30 AM, Gelendzhik, Weather by CustomWeather, © 2016

Note: Actual official high and low records may vary slightly from our data, if they occured in-between our weather recording intervals... More about our weather records

Advertising

Gelendzhik Weather History for the Previous 24 Hours

Scroll right to see more
 ConditionsComfort  
Time TempWeatherWind HumidityBarometerVisibility
4:30 AM
Fri, Apr 29
39 °FFog.6 mph93%30.09 "Hg2 mi
4:00 AM39 °FFog.6 mph100%30.09 "Hg3 mi
3:30 AM39 °FFog.6 mph93%30.09 "Hg3 mi
3:00 AM39 °FFog.6 mph93%30.09 "Hg3 mi
2:30 AM39 °FFog.6 mph100%30.09 "Hg3 mi
2:00 AM39 °FFog.6 mph93%30.09 "Hg3 mi
1:30 AM39 °FFog.6 mph93%30.09 "Hg3 mi
1:00 AM39 °FChilly.6 mph93%30.09 "Hg3 mi
12:00 AM39 °FChilly.6 mph100%30.12 "Hg4 mi
11:30 PM
Thu, Apr 28
41 °FFog.6 mph93%30.12 "Hg3 mi
11:00 PM41 °FQuite cool.6 mph93%30.12 "Hg3 mi
10:30 PM41 °FQuite cool.3 mph93%30.12 "Hg4 mi
10:00 PM41 °FQuite cool.3 mph93%30.12 "Hg4 mi
9:30 PM41 °FQuite cool.6 mph93%30.12 "Hg4 mi
9:00 PM43 °FQuite cool.3 mph93%30.12 "Hg5 mi
8:30 PM46 °FCool.1 mph87%30.09 "Hg6 mi
8:00 PM48 °FCool.3 mph94%30.09 "HgN/A
7:30 PM50 °FSunny.6 mph88%30.09 "Hg10 mi
7:00 PM54 °FSunny.6 mph82%30.09 "Hg10 mi
6:30 PM54 °FSunny.8 mph88%30.09 "Hg10 mi
6:00 PM55 °FSunny.8 mph82%30.09 "Hg10 mi
5:30 PM55 °FSunny.8 mph82%30.09 "Hg10 mi
5:00 PM57 °FSunny.8 mph77%30.09 "Hg10 mi
4:30 PM57 °FPassing clouds.10 mph77%30.07 "HgN/A
4:00 PM57 °FPassing clouds.13 mph77%30.07 "HgN/A
3:30 PM57 °FPassing clouds.15 mph77%30.07 "HgN/A
3:00 PM57 °FScattered clouds.15 mph72%30.07 "HgN/A
2:00 PM57 °FScattered clouds.15 mph77%30.09 "HgN/A
1:30 PM57 °FScattered clouds.15 mph72%30.09 "HgN/A
1:00 PM57 °FScattered clouds.15 mph72%30.07 "HgN/A
12:30 PM57 °FPassing clouds.15 mph67%30.07 "HgN/A
12:00 PM57 °FPassing clouds.15 mph72%30.07 "HgN/A
11:30 AM57 °FPassing clouds.15 mph67%30.07 "HgN/A
10:30 AM57 °FPassing clouds.15 mph77%30.07 "HgN/A
8:30 AM55 °FScattered clouds.15 mph72%30.07 "HgN/A
8:00 AM54 °FScattered clouds.13 mph77%30.07 "HgN/A
7:00 AM54 °FCool.13 mph77%30.07 "HgN/A
6:30 AM52 °FCool.10 mph82%30.07 "HgN/A
6:00 AM52 °FCool.10 mph82%30.04 "HgN/A
5:00 AM52 °FCool.10 mph82%30.04 "HgN/A
Weather by CustomWeather, © 2016

See weather overviewHow to use our weather pages